[[{"header":{"parameterUnit":"m.s-1","parameterCategory":1,"la1":30.2992,"la2":30.254,"lo1":-89.0895,"lo2":-89.0443,"dy":0.0025,"dx":0.0025,"nx":19,"ny":19,"refTime":"2026-05-22T03:00:00:Z","depth":0,"parameterNumber":2,"parameterNumberName":"U-component_of_WINDS"},"data":[0,0,0,-0.8697,-0.8698,-0.8742,-0.8743,-0.8795,-0.8795,0,0,0,0,0,0,0,0,0,0,0,-0.868,-0.8681,-0.8697,-0.8698,-0.8742,-0.8743,-0.8795,-0.8795,0,0,0,0,0,0,0,0,0,0,0,-0.868,-0.868,-0.8681,-0.8698,-0.8742,-0.8743,-0.8795,-0.8763,0,0,0,0,0,0,0,0,0,0,-0.872,-0.8702,-0.868,-0.8681,-0.8698,-0.8742,-0.8743,-0.8761,-0.8765,-0.8772,0,-0.8778,0,-0.8788,-0.8798,-0.8799,0,0,0,-0.87,-0.8699,-0.8714,-0.8681,-0.8698,-0.8742,-0.8723,-0.8763,-0.8767,-0.8777,-0.8779,-0.8781,-0.8788,-0.8799,-0.8799,-0.8837,-0.8837,0,0,-0.8697,-0.8687,-0.8711,-0.8716,-0.8709,-0.8721,-0.8724,-0.8766,-0.8767,-0.8779,-0.8783,-0.8789,-0.8799,-0.8799,-0.8837,-0.8837,0,0,0,-0.8689,-0.8685,-0.8699,-0.8714,-0.8722,-0.8723,-0.8726,-0.8765,-0.8771,-0.8783,-0.879,-0.8799,-0.88,-0.8837,-0.8837,-0.883,0,0,0,-0.8687,-0.868,-0.8698,-0.8691,-0.8722,-0.8744,-0.8725,-0.8768,-0.8773,-0.879,-0.8799,-0.88,-0.8837,-0.8837,-0.883,-0.8829,0,0,0,-0.8678,-0.8679,-0.8684,-0.8691,-0.871,-0.8744,-0.8752,-0.8769,-0.8777,-0.8799,-0.88,-0.8837,-0.8837,-0.883,-0.8829,-0.8836,0,0,0,-0.8666,-0.8677,-0.8684,-0.8699,-0.8709,-0.874,-0.8752,-0.8775,-0.8792,-0.88,-0.8837,-0.8837,-0.883,-0.8829,-0.8836,-0.884,-0.8841,0,0,-0.8674,-0.8678,-0.8688,-0.8695,-0.8722,-0.8734,-0.8759,-0.8785,-0.8797,-0.8823,-0.8824,-0.883,-0.8829,-0.8836,-0.8848,-0.8849,0,0,0,-0.8687,-0.8694,-0.8703,-0.872,-0.874,-0.8758,-0.8781,-0.8791,-0.8814,-0.8808,-0.8835,-0.8834,-0.8839,-0.8842,-0.8842,-0.8847,-0.8837,-0.8837,-0.8837,-0.8683,-0.8698,-0.8716,-0.8736,-0.8752,-0.8777,-0.8791,-0.8809,-0.8818,-0.8825,-0.8832,-0.8838,-0.8841,-0.8841,-0.8846,-0.8836,-0.8836,-0.8836,-0.8836,-0.8697,-0.8709,-0.8723,-0.8745,-0.8761,-0.878,-0.8805,-0.8811,-0.8831,-0.8833,-0.8838,-0.8839,-0.8841,-0.8846,-0.8835,-0.8835,-0.8835,-0.8835,-0.8835,-0.8696,-0.8705,-0.8717,-0.8743,-0.8761,-0.8782,-0.8801,-0.8814,-0.8827,-0.8832,-0.8842,-0.8843,-0.8845,-0.8836,-0.8836,-0.8836,-0.8836,-0.8836,-0.8836,-0.869,-0.8704,-0.8719,-0.8742,-0.8755,-0.8774,-0.8799,-0.8812,-0.883,-0.8839,-0.8839,-0.8849,-0.8838,-0.8836,-0.8837,-0.8837,-0.8836,-0.8836,-0.8836,-0.8699,-0.87,-0.8722,-0.8734,-0.8764,-0.8782,-0.8799,-0.8825,-0.8838,-0.8847,-0.8856,-0.8846,-0.885,-0.885,-0.8848,-0.8852,-0.8852,-0.8852,-0.8852,-0.8699,-0.8702,-0.8729,-0.8749,-0.877,-0.8788,-0.8813,-0.8834,-0.8855,-0.8864,-0.8865,-0.8863,-0.8863,-0.8868,-0.8867,-0.8865,-0.8874,-0.8874,-0.8874,-0.8705,-0.8712,-0.873,-0.8751,-0.8775,-0.8796,-0.882,-0.8843,-0.8867,-0.8875,-0.8871,-0.887,-0.8868,-0.8866,-0.8874,-0.8873,-0.887,0,0]},{"header":{"parameterUnit":"m.s-1","parameterCategory":1,"la1":30.2992,"la2":30.254,"lo1":-89.0895,"lo2":-89.0443,"dy":0.0025,"dx":0.0025,"nx":19,"ny":19,"refTime":"2026-05-22T03:00:00:Z","depth":0,"parameterNumber":3,"parameterNumberName":"V-component_of_WINDS"},"data":[0,0,0,4.7375,4.7381,4.7659,4.7661,4.7991,4.7993,0,0,0,0,0,0,0,0,0,0,0,4.7282,4.7284,4.7375,4.7382,4.7659,4.7661,4.799,4.7993,0,0,0,0,0,0,0,0,0,0,0,4.7281,4.7283,4.7286,4.7383,4.7659,4.7661,4.7989,4.7788,0,0,0,0,0,0,0,0,0,0,4.7522,4.7426,4.7283,4.7286,4.7384,4.7659,4.7661,4.7778,4.78,4.7855,0,4.7905,0,4.7954,4.8014,4.8015,0,0,0,4.7389,4.7407,4.7493,4.7286,4.7387,4.7658,4.7536,4.7791,4.7816,4.7884,4.791,4.7922,4.796,4.8016,4.8018,4.8319,4.832,0,0,4.7373,4.7325,4.7476,4.7508,4.7469,4.7527,4.7545,4.7806,4.7829,4.7911,4.7931,4.7965,4.8018,4.8021,4.8318,4.8319,0,0,0,4.7325,4.7314,4.7394,4.7494,4.7546,4.7535,4.7555,4.7818,4.7848,4.7934,4.7969,4.802,4.8024,4.8317,4.8318,4.8325,0,0,0,4.7316,4.7286,4.7386,4.7359,4.7541,4.7687,4.756,4.783,4.7861,4.7968,4.802,4.8027,4.8316,4.8318,4.8322,4.8334,0,0,0,4.7267,4.728,4.7317,4.7356,4.7475,4.7683,4.7729,4.7838,4.7882,4.8016,4.8028,4.8315,4.8317,4.832,4.8331,4.8399,0,0,0,4.7201,4.7317,4.7316,4.7459,4.7472,4.7687,4.7728,4.789,4.8005,4.8022,4.8316,4.8318,4.8319,4.8329,4.8396,4.8446,4.8463,0,0,4.732,4.733,4.7418,4.7425,4.7628,4.7648,4.7851,4.8001,4.8056,4.8227,4.8235,4.8323,4.8331,4.8398,4.8578,4.8591,0,0,0,4.7439,4.7501,4.7566,4.7675,4.7795,4.7897,4.8022,4.8078,4.8226,4.8136,4.8368,4.8374,4.8416,4.8441,4.8453,4.849,4.8329,4.8329,4.8328,4.7536,4.7604,4.7753,4.7853,4.7958,4.8087,4.8177,4.8273,4.8308,4.8362,4.8412,4.8513,4.8542,4.8551,4.8589,4.8446,4.8446,4.8446,4.8446,4.7715,4.7813,4.7859,4.8021,4.8089,4.8224,4.8351,4.8372,4.8504,4.8481,4.8521,4.8487,4.8563,4.86,4.8447,4.8447,4.8446,4.8446,4.8446,4.7784,4.7843,4.7911,4.8076,4.8195,4.8291,4.8418,4.8476,4.8531,4.857,4.8628,4.8628,4.8633,4.8595,4.8595,4.8595,4.8596,4.8596,4.8596,4.7828,4.7905,4.8006,4.8143,4.8221,4.833,4.846,4.8536,4.8635,4.8667,4.8668,4.8695,4.856,4.8523,4.8602,4.8601,4.86,4.86,4.8599,4.798,4.7956,4.8111,4.819,4.8355,4.8467,4.8541,4.8692,4.8764,4.8823,4.8844,4.8735,4.8747,4.8739,4.8709,4.8831,4.8831,4.8831,4.8831,4.8037,4.805,4.8223,4.8343,4.8468,4.855,4.872,4.8821,4.8921,4.8969,4.896,4.8926,4.8914,4.8933,4.8921,4.8893,4.906,4.906,4.906,4.8133,4.8161,4.8296,4.8398,4.8531,4.8643,4.8804,4.8937,4.9045,4.9071,4.9006,4.8997,4.8942,4.8921,4.8943,4.8922,4.8873,0,0]}]]